WZZ323 LHBP-EPKK

Flight info

Callsign WZZ323
Flight time 0h 56m
Altitude 24000
Route LITKU Y301 KALIF DCT MEBAN
Aircraft A321/M-SDE1E2E3FGIJ1J4RWXY/LB1

Departure

Time 2026-05-07 16:31
Airport Budapest Liszt Ferenc International Airport (LHBP)

Arrival

Time 2026-05-07 17:27
Airport Kraków John Paul II International Airport (EPKK)
Time Latitude Longitude Altitude Speed Heading
2026-05-07 16:12 47.43554 19.25818 456 ft 0 kts 312°
2026-05-07 16:13 47.43552 19.25820 456 ft 0 kts 312°
2026-05-07 16:15 47.43554 19.25818 457 ft 1 kts 312°
2026-05-07 16:16 47.43552 19.25820 457 ft 0 kts 312°
2026-05-07 16:22 47.43551 19.25821 457 ft 2 kts 312°
2026-05-07 16:22 47.43537 19.25850 457 ft 4 kts 288°
2026-05-07 16:22 47.43536 19.25885 457 ft 4 kts 236°
2026-05-07 16:23 47.43541 19.25895 457 ft 0 kts 222°
2026-05-07 16:26 47.43539 19.25893 457 ft 1 kts 222°
2026-05-07 16:26 47.43531 19.25881 457 ft 3 kts 222°
2026-05-07 16:26 47.43512 19.25856 457 ft 5 kts 222°
2026-05-07 16:27 47.43498 19.25811 457 ft 5 kts 269°
2026-05-07 16:27 47.43518 19.25757 457 ft 7 kts 312°
2026-05-07 16:27 47.43547 19.25694 457 ft 8 kts 282°
2026-05-07 16:27 47.43521 19.25626 457 ft 9 kts 224°
2026-05-07 16:28 47.43474 19.25561 457 ft 10 kts 222°
2026-05-07 16:28 47.43421 19.25491 457 ft 11 kts 222°
2026-05-07 16:28 47.43362 19.25411 457 ft 12 kts 222°
2026-05-07 16:28 47.43297 19.25323 457 ft 13 kts 222°
2026-05-07 16:29 47.43225 19.25228 457 ft 14 kts 221°
2026-05-07 16:29 47.43148 19.25123 457 ft 16 kts 223°
2026-05-07 16:29 47.43074 19.25017 457 ft 10 kts 244°
2026-05-07 16:29 47.43105 19.24932 457 ft 3 kts 313°
2026-05-07 16:30 47.43106 19.24932 457 ft 0 kts 313°
2026-05-07 16:30 47.43151 19.24860 457 ft 37 kts 313°
2026-05-07 16:30 47.43517 19.24270 451 ft 116 kts 312°
2026-05-07 16:31 47.44205 19.23163 505 ft 171 kts 312°
2026-05-07 16:31 47.44995 19.21924 1376 ft 163 kts 311°
2026-05-07 16:31 47.45789 19.20667 1985 ft 176 kts 310°
2026-05-07 16:31 47.46661 19.19237 2363 ft 198 kts 309°
2026-05-07 16:32 47.47632 19.17634 2718 ft 221 kts 309°
2026-05-07 16:32 47.48777 19.15914 3087 ft 248 kts 316°
2026-05-07 16:32 47.50130 19.14200 3741 ft 262 kts 319°
2026-05-07 16:32 47.51570 19.12484 4574 ft 268 kts 319°
2026-05-07 16:33 47.53041 19.10751 5450 ft 272 kts 319°
2026-05-07 16:33 47.54526 19.08990 6341 ft 275 kts 318°
2026-05-07 16:33 47.56018 19.07200 7188 ft 278 kts 318°
2026-05-07 16:33 47.57524 19.05375 8051 ft 281 kts 317°
2026-05-07 16:34 47.59036 19.03526 8916 ft 283 kts 316°
2026-05-07 16:34 47.60560 19.01654 9785 ft 286 kts 316°
2026-05-07 16:34 47.62137 18.99797 10416 ft 299 kts 323°
2026-05-07 16:34 47.64200 18.98763 10630 ft 332 kts 352°
2026-05-07 16:35 47.66567 18.99145 11048 ft 352 kts 15°
2026-05-07 16:35 47.68791 19.00751 11710 ft 361 kts 36°
2026-05-07 16:35 47.70701 19.03195 12431 ft 365 kts 43°
2026-05-07 16:35 47.72587 19.05764 13186 ft 370 kts 43°
2026-05-07 16:36 47.74459 19.08344 13886 ft 375 kts 44°
2026-05-07 16:36 47.76371 19.11004 14534 ft 379 kts 44°
2026-05-07 16:36 47.78305 19.13696 15180 ft 383 kts 44°
2026-05-07 16:36 47.80258 19.16416 15851 ft 387 kts 44°
2026-05-07 16:37 47.82231 19.19165 16557 ft 391 kts 44°
2026-05-07 16:37 47.84228 19.21952 17297 ft 395 kts 44°
2026-05-07 16:37 47.86245 19.24767 18011 ft 400 kts 44°
2026-05-07 16:37 47.88279 19.27612 18602 ft 404 kts 45°
2026-05-07 16:38 47.90336 19.30494 19173 ft 408 kts 44°
2026-05-07 16:38 47.92410 19.33398 19745 ft 411 kts 44°
2026-05-07 16:38 47.94505 19.36326 20312 ft 415 kts 44°
2026-05-07 16:38 47.96623 19.39286 20862 ft 419 kts 44°
2026-05-07 16:39 47.98754 19.42276 21432 ft 423 kts 44°
2026-05-07 16:39 48.00906 19.45305 22013 ft 427 kts 44°
2026-05-07 16:39 48.03077 19.48365 22591 ft 431 kts 44°
2026-05-07 16:39 48.05297 19.51397 23127 ft 435 kts 39°
2026-05-07 16:40 48.07797 19.53974 23655 ft 438 kts 29°
2026-05-07 16:40 48.10561 19.55915 23918 ft 440 kts 19°
2026-05-07 16:40 48.13491 19.57122 23990 ft 431 kts
2026-05-07 16:40 48.16409 19.57932 24005 ft 424 kts
2026-05-07 16:41 48.19298 19.58748 24001 ft 422 kts
2026-05-07 16:41 48.22190 19.59502 23999 ft 421 kts
2026-05-07 16:41 48.25103 19.59662 24002 ft 418 kts 354°
2026-05-07 16:41 48.27996 19.59385 24002 ft 417 kts 353°
2026-05-07 16:42 48.30899 19.59101 24005 ft 418 kts 353°
2026-05-07 16:42 48.33799 19.58819 24001 ft 418 kts 353°
2026-05-07 16:42 48.36706 19.58538 24004 ft 418 kts 353°
2026-05-07 16:42 48.39614 19.58258 24003 ft 418 kts 353°
2026-05-07 16:43 48.42518 19.57977 24001 ft 418 kts 353°
2026-05-07 16:43 48.45424 19.57694 24001 ft 419 kts 353°
2026-05-07 16:43 48.48330 19.57412 24006 ft 419 kts 353°
2026-05-07 16:43 48.51243 19.57242 24006 ft 420 kts 359°
2026-05-07 16:44 48.54167 19.57461 24009 ft 421 kts
2026-05-07 16:44 48.57086 19.57695 24013 ft 421 kts
2026-05-07 16:44 48.60013 19.57926 24013 ft 421 kts
2026-05-07 16:44 48.62940 19.58155 24016 ft 421 kts
2026-05-07 16:45 48.65860 19.58382 24015 ft 421 kts
2026-05-07 16:45 48.68782 19.58609 24014 ft 420 kts
2026-05-07 16:45 48.71701 19.58835 24016 ft 420 kts
2026-05-07 16:45 48.74623 19.59058 24011 ft 420 kts
2026-05-07 16:46 48.77538 19.59282 24011 ft 420 kts
2026-05-07 16:46 48.80455 19.59507 24013 ft 420 kts
2026-05-07 16:46 48.83373 19.59736 24037 ft 420 kts
2026-05-07 16:46 48.86290 19.59969 24030 ft 420 kts
2026-05-07 16:47 48.89207 19.60203 24015 ft 420 kts
2026-05-07 16:47 48.92132 19.60435 24014 ft 421 kts
2026-05-07 16:47 48.95054 19.60662 24011 ft 421 kts
2026-05-07 16:47 48.97978 19.60886 24013 ft 420 kts
2026-05-07 16:48 49.00900 19.61110 24015 ft 421 kts
2026-05-07 16:48 49.03820 19.61339 24012 ft 421 kts
2026-05-07 16:48 49.06746 19.61571 24010 ft 422 kts
2026-05-07 16:48 49.09721 19.61806 24013 ft 434 kts
2026-05-07 16:49 49.12738 19.62045 23902 ft 432 kts
2026-05-07 16:49 49.15733 19.62285 23455 ft 429 kts
2026-05-07 16:49 49.18703 19.62523 22978 ft 426 kts
2026-05-07 16:49 49.21651 19.62755 22521 ft 423 kts
2026-05-07 16:50 49.24575 19.62987 22047 ft 419 kts
2026-05-07 16:50 49.26503 19.63142 21722 ft 417 kts
2026-05-07 16:50 49.29386 19.63376 21244 ft 414 kts
2026-05-07 16:50 49.32253 19.63609 20777 ft 411 kts
2026-05-07 16:51 49.35075 19.63838 19968 ft 402 kts
2026-05-07 16:51 49.37850 19.64060 18923 ft 396 kts
2026-05-07 16:51 49.40578 19.64276 17921 ft 389 kts
2026-05-07 16:51 49.43177 19.64893 17513 ft 366 kts 14°
2026-05-07 16:52 49.45484 19.66221 17150 ft 344 kts 25°
2026-05-07 16:52 49.47561 19.67771 17065 ft 328 kts 26°
2026-05-07 16:52 49.49632 19.69379 16999 ft 337 kts 27°
2026-05-07 16:52 49.51723 19.71031 16923 ft 338 kts 27°
2026-05-07 16:53 49.53815 19.72694 16832 ft 339 kts 27°
2026-05-07 16:53 49.55947 19.74386 16124 ft 349 kts 27°
2026-05-07 16:53 49.58113 19.76098 15815 ft 353 kts 27°
2026-05-07 16:53 49.60304 19.77822 15512 ft 354 kts 27°
2026-05-07 16:54 49.62490 19.79542 15211 ft 352 kts 27°
2026-05-07 16:54 49.64658 19.81249 14915 ft 348 kts 27°
2026-05-07 16:54 49.66806 19.82940 14640 ft 346 kts 27°
2026-05-07 16:54 49.68941 19.84621 14352 ft 343 kts 27°
2026-05-07 16:55 49.71059 19.86286 14072 ft 340 kts 27°
2026-05-07 16:55 49.73161 19.87936 13781 ft 338 kts 27°
2026-05-07 16:55 49.75249 19.89578 13463 ft 336 kts 27°
2026-05-07 16:55 49.77323 19.91216 13141 ft 333 kts 27°
2026-05-07 16:56 49.79382 19.92845 12821 ft 332 kts 27°
2026-05-07 16:56 49.81403 19.94446 12513 ft 329 kts 27°
2026-05-07 16:56 49.85455 19.97658 11904 ft 326 kts 26°
2026-05-07 16:57 49.87467 19.99259 11503 ft 324 kts 26°
2026-05-07 16:57 49.89470 20.00855 11101 ft 322 kts 26°
2026-05-07 16:57 49.91456 20.02435 10700 ft 320 kts 26°
2026-05-07 16:57 49.93432 20.04008 10306 ft 318 kts 26°
2026-05-07 16:58 49.95391 20.05570 9919 ft 316 kts 26°
2026-05-07 16:58 49.97340 20.07128 9506 ft 314 kts 26°
2026-05-07 16:58 49.99279 20.08680 9085 ft 312 kts 26°
2026-05-07 16:58 50.01182 20.10268 8667 ft 310 kts 32°
2026-05-07 16:59 50.02769 20.12522 8256 ft 309 kts 52°
2026-05-07 16:59 50.03790 20.15432 7851 ft 307 kts 72°
2026-05-07 16:59 50.04279 20.18651 7460 ft 305 kts 78°
2026-05-07 16:59 50.05043 20.21611 7050 ft 288 kts 50°
2026-05-07 17:00 50.06568 20.23384 6660 ft 266 kts 15°
2026-05-07 17:00 50.08318 20.23586 6277 ft 246 kts 346°
2026-05-07 17:00 50.09963 20.23028 5865 ft 241 kts 345°
2026-05-07 17:00 50.11548 20.22283 5446 ft 235 kts 327°
2026-05-07 17:01 50.12704 20.20571 5062 ft 231 kts 298°
2026-05-07 17:01 50.13155 20.18203 4654 ft 230 kts 269°
2026-05-07 17:01 50.12910 20.15743 4254 ft 232 kts 257°
2026-05-07 17:01 50.12567 20.13295 4011 ft 227 kts 258°
2026-05-07 17:02 50.12248 20.10990 4028 ft 209 kts 258°
2026-05-07 17:02 50.11952 20.08822 4013 ft 202 kts 258°
2026-05-07 17:02 50.11664 20.06705 4013 ft 198 kts 258°
2026-05-07 17:02 50.11377 20.04612 3912 ft 197 kts 258°
2026-05-07 17:03 50.11091 20.02537 3642 ft 194 kts 258°
2026-05-07 17:03 50.10810 20.00491 3403 ft 193 kts 258°
2026-05-07 17:03 50.10531 19.98446 3153 ft 192 kts 258°
2026-05-07 17:03 50.10255 19.96425 2916 ft 189 kts 258°
2026-05-07 17:04 50.09989 19.94476 2679 ft 178 kts 258°
2026-05-07 17:04 50.09743 19.92691 2456 ft 156 kts 258°
2026-05-07 17:04 50.09526 19.91134 2232 ft 141 kts 258°
2026-05-07 17:04 50.09324 19.89683 2045 ft 136 kts 258°
2026-05-07 17:05 50.09123 19.88240 1858 ft 137 kts 257°
2026-05-07 17:05 50.08921 19.86778 1693 ft 139 kts 257°
2026-05-07 17:05 50.08717 19.85304 1471 ft 140 kts 257°
2026-05-07 17:05 50.08523 19.83818 1307 ft 141 kts 257°
2026-05-07 17:06 50.08309 19.82318 1141 ft 143 kts 254°
2026-05-07 17:06 50.08097 19.80798 940 ft 144 kts 256°
2026-05-07 17:06 50.07885 19.79295 824 ft 136 kts 255°
2026-05-07 17:06 50.07683 19.77785 1080 ft 161 kts 255°
2026-05-07 17:07 50.07427 19.75979 1983 ft 178 kts 257°
2026-05-07 17:07 50.07143 19.74092 2648 ft 187 kts 256°
2026-05-07 17:07 50.06802 19.72032 3035 ft 204 kts 256°
2026-05-07 17:07 50.06432 19.69882 3613 ft 208 kts 255°
2026-05-07 17:08 50.06129 19.67661 3962 ft 211 kts 268°
2026-05-07 17:08 50.06459 19.65452 4020 ft 213 kts 296°
2026-05-07 17:08 50.07188 19.63448 4025 ft 212 kts 298°
2026-05-07 17:08 50.07921 19.61456 4024 ft 212 kts 297°
2026-05-07 17:09 50.08658 19.59458 4027 ft 213 kts 297°
2026-05-07 17:09 50.09395 19.57457 4021 ft 213 kts 298°
2026-05-07 17:09 50.10130 19.55455 4020 ft 213 kts 297°
2026-05-07 17:09 50.10858 19.53462 4026 ft 212 kts 297°
2026-05-07 17:10 50.11586 19.51467 4126 ft 211 kts 297°
2026-05-07 17:10 50.12538 19.49725 4378 ft 217 kts 324°
2026-05-07 17:10 50.14000 19.49058 4637 ft 227 kts 358°
2026-05-07 17:10 50.15537 19.49712 4901 ft 234 kts 22°
2026-05-07 17:11 50.16917 19.51064 4992 ft 237 kts 44°
2026-05-07 17:11 50.17737 19.53282 5030 ft 239 kts 71°
2026-05-07 17:11 50.18187 19.55786 5025 ft 239 kts 76°
2026-05-07 17:11 50.18579 19.58275 5022 ft 239 kts 76°
2026-05-07 17:12 50.18971 19.60800 5021 ft 239 kts 76°
2026-05-07 17:12 50.19365 19.63324 5022 ft 240 kts 76°
2026-05-07 17:12 50.19754 19.65850 5024 ft 239 kts 76°
2026-05-07 17:12 50.20140 19.68364 5025 ft 238 kts 76°
2026-05-07 17:13 50.20525 19.70876 5011 ft 238 kts 76°
2026-05-07 17:13 50.20909 19.73380 5010 ft 238 kts 76°
2026-05-07 17:13 50.21295 19.75893 5011 ft 238 kts 76°
2026-05-07 17:13 50.21680 19.78407 5011 ft 238 kts 76°
2026-05-07 17:14 50.22066 19.80917 5010 ft 237 kts 76°
2026-05-07 17:14 50.22453 19.83425 5011 ft 238 kts 76°
2026-05-07 17:14 50.22837 19.85938 5015 ft 238 kts 77°
2026-05-07 17:14 50.23226 19.88477 5013 ft 238 kts 76°
2026-05-07 17:15 50.23604 19.90955 5014 ft 237 kts 76°
2026-05-07 17:15 50.23986 19.93467 5015 ft 238 kts 76°
2026-05-07 17:15 50.24373 19.96014 5016 ft 238 kts 76°
2026-05-07 17:15 50.24746 19.98490 5017 ft 238 kts 77°
2026-05-07 17:16 50.25124 20.00989 4876 ft 235 kts 76°
2026-05-07 17:16 50.25496 20.03471 4475 ft 235 kts 76°
2026-05-07 17:16 50.25865 20.05955 4092 ft 234 kts 76°
2026-05-07 17:16 50.26225 20.08421 4013 ft 233 kts 77°
2026-05-07 17:17 50.26592 20.10897 4023 ft 234 kts 76°
2026-05-07 17:17 50.26957 20.13381 4031 ft 235 kts 76°
2026-05-07 17:17 50.27321 20.15866 4021 ft 234 kts 77°
2026-05-07 17:17 50.27687 20.18345 4031 ft 233 kts 77°
2026-05-07 17:18 50.28053 20.20795 4027 ft 231 kts 76°
2026-05-07 17:18 50.28417 20.23234 4024 ft 230 kts 77°
2026-05-07 17:18 50.28459 20.25704 4030 ft 229 kts 103°
2026-05-07 17:18 50.27780 20.27913 4028 ft 226 kts 131°
2026-05-07 17:19 50.26535 20.29357 4029 ft 223 kts 160°
2026-05-07 17:19 50.25027 20.29732 4024 ft 220 kts 187°
2026-05-07 17:19 50.23602 20.29011 4031 ft 216 kts 214°
2026-05-07 17:19 50.22514 20.27438 4031 ft 213 kts 230°
2026-05-07 17:20 50.21530 20.25701 4041 ft 213 kts 230°
2026-05-07 17:20 50.20546 20.23975 4036 ft 213 kts 230°
2026-05-07 17:20 50.19555 20.22246 4028 ft 213 kts 230°
2026-05-07 17:20 50.18566 20.20525 4020 ft 213 kts 230°
2026-05-07 17:21 50.17572 20.18801 4023 ft 214 kts 230°
2026-05-07 17:21 50.16578 20.17079 4019 ft 214 kts 229°
2026-05-07 17:21 50.15599 20.15383 4013 ft 205 kts 230°
2026-05-07 17:21 50.14661 20.13759 4017 ft 200 kts 230°
2026-05-07 17:22 50.13734 20.12153 4017 ft 198 kts 230°
2026-05-07 17:22 50.12818 20.10558 4018 ft 197 kts 231°
2026-05-07 17:22 50.12076 20.08778 4016 ft 196 kts 246°
2026-05-07 17:22 50.11661 20.06750 3840 ft 195 kts 259°
2026-05-07 17:23 50.11390 20.04688 3647 ft 193 kts 258°
2026-05-07 17:23 50.11113 20.02653 3473 ft 192 kts 258°
2026-05-07 17:23 50.10830 20.00591 3297 ft 191 kts 258°
2026-05-07 17:23 50.10558 19.98593 3127 ft 191 kts 258°
2026-05-07 17:24 50.10285 19.96581 2940 ft 190 kts 258°
2026-05-07 17:24 50.10017 19.94624 2705 ft 178 kts 258°
2026-05-07 17:24 50.09773 19.92857 2487 ft 153 kts 258°
2026-05-07 17:24 50.09557 19.91314 2263 ft 140 kts 258°
2026-05-07 17:25 50.09356 19.89872 2071 ft 134 kts 258°
2026-05-07 17:25 50.09157 19.88444 1885 ft 135 kts 258°
2026-05-07 17:25 50.08955 19.87005 1705 ft 137 kts 257°
2026-05-07 17:25 50.08755 19.85545 1510 ft 138 kts 257°
2026-05-07 17:26 50.08554 19.84083 1338 ft 139 kts 256°
2026-05-07 17:26 50.08354 19.82612 1166 ft 139 kts 257°
2026-05-07 17:26 50.08151 19.81149 991 ft 138 kts 255°
2026-05-07 17:26 50.07943 19.79704 823 ft 136 kts 255°
2026-05-07 17:27 50.07772 19.78470 802 ft 81 kts 258°
2026-05-07 17:27 50.07693 19.77907 798 ft 45 kts 258°
2026-05-07 17:27 50.07630 19.77454 799 ft 41 kts 257°
2026-05-07 17:27 50.07573 19.77050 803 ft 31 kts 258°
2026-05-07 17:28 50.07523 19.76853 803 ft 15 kts 208°
2026-05-07 17:28 50.07408 19.76870 800 ft 19 kts 168°
2026-05-07 17:28 50.07312 19.76936 800 ft 13 kts 112°
2026-05-07 17:28 50.07325 19.77088 800 ft 15 kts 77°
2026-05-07 17:29 50.07349 19.77260 800 ft 17 kts 78°
2026-05-07 17:29 50.07376 19.77456 800 ft 20 kts 78°
2026-05-07 17:29 50.07407 19.77674 800 ft 22 kts 78°
2026-05-07 17:29 50.07439 19.77913 800 ft 24 kts 78°
2026-05-07 17:30 50.07476 19.78172 800 ft 25 kts 77°
2026-05-07 17:30 50.07515 19.78450 800 ft 27 kts 77°
2026-05-07 17:30 50.07552 19.78717 800 ft 24 kts 78°
2026-05-07 17:30 50.07588 19.78975 800 ft 24 kts 78°
2026-05-07 17:31 50.07625 19.79242 800 ft 26 kts 78°
2026-05-07 17:31 50.07660 19.79492 800 ft 19 kts 78°
2026-05-07 17:31 50.07685 19.79676 800 ft 16 kts 77°
2026-05-07 17:31 50.07702 19.79835 800 ft 13 kts 102°
2026-05-07 17:32 50.07622 19.79895 800 ft 15 kts 169°
2026-05-07 17:32 50.07526 19.79936 800 ft 12 kts 146°
2026-05-07 17:32 50.07521 19.80057 800 ft 13 kts 78°
2026-05-07 17:32 50.07534 19.80152 800 ft 14 kts 77°
2026-05-07 17:33 50.07529 19.80263 800 ft 6 kts 160°
2026-05-07 17:33 50.07503 19.80271 800 ft 0 kts 168°